Simultaneous Nadir Overpasses (SNOs) Predictions

Prediction of SNOs between AQUA and NOAA-19 Satellite Orbit:

Table of predicted SNOs for the next 14.0 days since TLE Epoch: 1/17/2015
Index Date (AQUA) Time (AQUA) Lat,Lon (AQUA) SZA (AQUA ) Date (NOAA-19) Time (NOAA-19) Lat,Lon (NOAA-19) SZA (NOAA-19 ) Distance(km) Time Diff (sec)
1 01/19/2015 18:09:08 -81.35, 40.78 75.48 01/19/2015 18:07:54 -80.90, 40.01 75.66 52.00 74
2 01/19/2015 18:57:24 79.23,-129.45 100.63 01/19/2015 18:57:45 79.22,-129.44 100.62 0.48 21
3 01/21/2015 23:41:46 79.32, 158.86 100.30 01/21/2015 23:41:21 79.32, 158.89 100.30 0.78 25
4 01/22/2015 00:31:06 -79.08, -31.97 80.06 01/22/2015 00:32:11 -79.08, -31.88 80.09 1.86 65
5 01/24/2015 04:26:09 79.47, 86.77 100.02 01/24/2015 04:24:59 79.48, 86.64 100.07 2.78 70
6 01/24/2015 05:15:29 -79.23,-104.00 80.34 01/24/2015 05:15:48 -79.23,-103.91 80.36 1.96 19
7 01/26/2015 09:59:52 -79.40,-176.17 80.62 01/26/2015 09:59:26 -79.40,-176.25 80.60 1.66 26
8 01/26/2015 10:49:12 79.14, -6.82 98.99 01/26/2015 10:50:24 79.14, -6.83 98.97 0.33 72
9 01/28/2015 14:44:13 -79.51, 112.02 81.02 01/28/2015 14:43:02 -79.52, 111.90 80.98 2.46 71
10 01/28/2015 15:33:33 79.25, -78.61 98.60 01/28/2015 15:34:00 79.25, -78.56 98.58 1.16 27
11 01/30/2015 20:17:54 79.38,-150.53 98.20 01/30/2015 20:17:37 79.39,-150.59 98.22 1.44 17
